"Pseudo-MPEC" for P22pkRR

Created 2026 Aug 12 18:35:35 UT using Find_Orb

Click here for an explanation of pseudo-MPECs

 
 Astrometry: 
     P22pkRR*0C2026 08 12.58069800 14 20.258-23 48 07.98   ~8CIZ 21.94wXNEOCPF52
     P22pkRR 0C2026 08 12.59100700 14 20.509-23 48 13.65   ~8CIZ 21.44wXNEOCPF52
     P22pkRR 0C2026 08 12.60139800 14 20.749-23 48 18.94   ~8CIZ 21.55wXNEOCPF52
     P22pkRR 0C2026 08 12.61180600 14 21.012-23 48 24.51   ~8CIZ 21.42wXNEOCPF52

Station data:
(F52) Pan-STARRS 2, Haleakala  (N20.707382 W156.255910)  US/Hawaii.
   Observers J. Herman, T. Lowe, P. Minguez, A. Schultz, I. Smith. Measurers
   K. Chambers, T. de Boer, J. Fairlamb, H. Gao, M. Huber, C.-C. Lin, E.
   Magnier, Y. Ramanjooloo, R. Wainscoat, R. Weryk. 1.8-m Ritchey-Chrétien +
   CCD.

Orbital elements:  P22pkRR
   Perihelion 2026 Nov 24.966261 +/- 57.3 TT = 23:11:24.9 (JD 2461369.466261)
Epoch 2026 Aug 13.0 TT = JDT 2461265.5   Earth MOID: 0.0127   Ma: 0.0551
M 325.597889422 +/- 29              (J2000 ecliptic)             AutoNEOCP
n   0.330896873 +/- 0.321           Peri.   55.001670 +/- 100
a   2.070177609 +/- 1.34            Node    21.958413 +/- 51
e   0.60596596 +/- 0.254            Incl.   12.151054 +/- 9
P   2.97859                H 20.28  G  0.15   U 12.0  SR
q 0.815720442 +/- 0.645    Q 3.324634777 +/- 60.5
From 4 observations 2026 Aug. 12 (44.8 min); mean residual 0".07
Residuals in arcseconds: 
260812 F52  .00   .06+    260812 F52  .10-  .08+    
260812 F52  .05+  .13-    260812 F52  .05+  .01-    

Ephemerides (geocentric):
Date (UTC) HH   RA             Dec           delta  r     elong  mag " sig PA
---- --------  ------------   ------------  ------ ------ -----  --- --------
2026 08 12 19  00 14 26.652   -23 49 52.38  .64672 1.5650 140.0 21.4  133 112
2026 08 12 20  00 14 27.873   -23 50 14.93  .64618 1.5646 140.0 21.4  154 108
2026 08 12 21  00 14 29.091   -23 50 37.51  .64565 1.5642 140.1 21.4  177 105
2026 08 12 22  00 14 30.306   -23 51 00.12  .64512 1.5639 140.1 21.4  201 102
2026 08 12 23  00 14 31.517   -23 51 22.76  .64459 1.5635 140.1 21.4  227 100
2026 08 13 00  00 14 32.725   -23 51 45.42  .64406 1.5631 140.1 21.4  255  98
2026 08 13 01  00 14 33.930   -23 52 08.12  .64353 1.5628 140.2 21.4  285  96
2026 08 13 02  00 14 35.131   -23 52 30.85  .64300 1.5624 140.2 21.4  318  95
2026 08 13 03  00 14 36.329   -23 52 53.60  .64247 1.5620 140.2 21.4  355  93
2026 08 13 04  00 14 37.524   -23 53 16.39  .64195 1.5617 140.2 21.4  395  92
2026 08 13 05  00 14 38.715   -23 53 39.20  .64142 1.5613 140.3 21.4  441  91
2026 08 13 06  00 14 39.902   -23 54 02.05  .64089 1.5610 140.3 21.4  494  90
2026 08 13 07  00 14 41.087   -23 54 24.92  .64036 1.5606 140.3 21.4  555  89
2026 08 13 08  00 14 42.268   -23 54 47.83  .63983 1.5602 140.4 21.4  628  88
2026 08 13 09  00 14 43.445   -23 55 10.76  .63930 1.5599 140.4 21.4  715  87
2026 08 13 10  00 14 44.619   -23 55 33.73  .63878 1.5595 140.4 21.4  823  86
2026 08 13 11  00 14 45.790   -23 55 56.72  .63825 1.5591 140.4 21.4  960  85
2026 08 13 12  00 14 46.961   -23 56 19.75  .63772 1.5588 140.5 21.4 1140  84
2026 08 13 13  00 14 48.135   -23 56 42.82  .63719 1.5584 140.5 21.4 1386  83
2026 08 13 14  00 14 49.314   -23 57 05.93  .63666 1.5580 140.5 21.4 1742  83
2026 08 13 15  00 14 50.496   -23 57 29.08  .63614 1.5577 140.5 21.4 2298  83
2026 08 13 16  00 14 51.683   -23 57 52.27  .63561 1.5573 140.6 21.4 3282  83
2026 08 13 17  00 14 52.874   -23 58 15.50  .63508 1.5569 140.6 21.4 5454  83
2026 08 13 18  00 14 54.070   -23 58 38.78  .63455 1.5565 140.6 21.4 221'  88
2026 08 13 19  00 14 55.269   -23 59 02.09  .63402 1.5562 140.6 21.4 745' 105
2026 08 13 20  00 14 56.473   -23 59 25.45  .63349 1.5558 140.7 21.4 919' 106
2026 08 13 21  00 14 57.681   -23 59 48.84  .63296 1.5554 140.7 21.4 962' 106
2026 08 13 22  00 14 58.893   -24 00 12.28  .63243 1.5551 140.7 21.4 981' 106
2026 08 13 23  00 15 00.109   -24 00 35.76  .63190 1.5547 140.7 21.4 991' 106
2026 08 14 00  00 15 01.329   -24 00 59.29  .63137 1.5543 140.8 21.4 997' 106
2026 08 14 01  00 15 02.554   -24 01 22.85  .63084 1.5539 140.8 21.4  17d 106
2026 08 14 02  00 15 03.783   -24 01 46.46  .63031 1.5536 140.8 21.4  17d 106
2026 08 14 03  00 15 05.017   -24 02 10.11  .62978 1.5532 140.8 21.4  17d 106
2026 08 14 04  00 15 06.254   -24 02 33.80  .62925 1.5528 140.9 21.4  17d 106
2026 08 14 05  00 15 07.493   -24 02 57.53  .62872 1.5524 140.9 21.4  17d 106
2026 08 14 06  00 15 08.729   -24 03 21.29  .62819 1.5521 140.9 21.4  17d 106
2026 08 14 07  00 15 09.961   -24 03 45.08  .62766 1.5517 141.0 21.4  17d 106
2026 08 14 08  00 15 11.190   -24 04 08.90  .62713 1.5513 141.0 21.4  17d 106
2026 08 14 09  00 15 12.416   -24 04 32.75  .62660 1.5509 141.0 21.3  17d 106
2026 08 14 10  00 15 13.639   -24 04 56.63  .62607 1.5506 141.0 21.3  17d 106
2026 08 14 11  00 15 14.858   -24 05 20.55  .62554 1.5502 141.1 21.3  17d 106
2026 08 14 12  00 15 16.074   -24 05 44.49  .62501 1.5498 141.1 21.3  17d 106
2026 08 14 13  00 15 17.287   -24 06 08.47  .62449 1.5494 141.1 21.3  17d 106
2026 08 14 14  00 15 18.496   -24 06 32.47  .62396 1.5491 141.1 21.3  17d 106
2026 08 14 15  00 15 19.703   -24 06 56.51  .62343 1.5487 141.2 21.3  17d 106
2026 08 14 16  00 15 20.906   -24 07 20.57  .62290 1.5483 141.2 21.3  17d 106
2026 08 14 17  00 15 22.105   -24 07 44.67  .62237 1.5479 141.2 21.3  18d 104
2026 08 14 18  00 15 23.302   -24 08 08.80  .62184 1.5476 141.2 21.3  20d 104